Zurück zum Katalog

TITAN 4B DEB

AktivLEO
NORAD 35415·DEBRIS·🇺🇸 United States

Gestartet Aug 17, 2000 von Vandenberg Space Force Base

Loading…

Nächste Überflüge (nächste 24 Stunden)

TLE

AktuellSource: Space-Track

Epoche: Sep 13, 2026, 08:16 UTC

1 35415U 00047D   26256.34491958  .00000296  00000-0  38300-4 0  9998
2 35415  67.9972  18.3318 0064247 248.1314 111.2987 14.93674857 94297

Verfolge TITAN 4B DEB in Echtzeit mit AllMySat

Download on the App Store